SCP
0 0 0 0 0 0 0 0 0 0 0 0 0 0 0 0 0 0 0 0 0 0 0 0 0 0 0 0 0 0 0 0 0 0 0 0 0 0 0 0 0 0 0 0 -0
0 0 0 0 0 0 0 0 0 0 0 0 0 0 0 0 0 0 0 0 0 0 0 0 0 0 0 0 0 0 0 0 0 0 0 0 0 0 0 0 0 0 0 0 0
0 0 0 0 0 0 0 0 0 0 0 0 0 0 0 0 0 0 0 0 0 0 0 0 0 0 0 0 0 0 0 0 0 0 0 0 0 0 0 0 0 0 0 0 0
0 0 0 0 0 0 0 0 0 0 0 0 0 0 0 0 0 0 0 0 0 0 0 0 0 0 0 0 0 0 0 0 0 0 0 0 0 0 0 0 0 0 0 0 0
0 0 0 0 0 0 0 0 0 0 0 0 0 0 0 0 0 0 0 0 0 0 0 0 0 0 0 0 0 0 0 0 0 0 0 0 0 0 0 0 0 0 0 0 0
0 0 0 0 0 0 0 0 0 0 0 0 0 0 0 0 0 0 0 0 0 0 0 0 0 0 0 0 0 0 0 0 0 0 0 0 0 0 0 0 0 0 0 0 0
0 0 0 0 0 0 0 0 0 0 0 0 0 0 0 0 0 0 0 0 0 0 0 0 0 0 0 0 0 0 0 0 0 0 0 0 0 0 0 0 0 0 0 0 0
0 0 0 0 0 0 0 0 0 0 0 0 0 0 0 0 0 0 0 0 0 0 0 0 0 0 0 0 0 0 0 0 0 0 0 0 0 0 0 0 0 0 0 0 0
0 0 0 0 0 0 0 0 0 0 0 0 0 0 0 0 0 0 0 0 0 0 0 0 0 0 0 0 0 0 0 0 0 0 0 0 0 0 0 0 0 0 0 0 0
0 0 0 0 0 0 0 0 0 0 0 0 0 0 0 0 0 0 0 0 0 0 0 0 0 0 0 0 0 0 0 0 0 0 0 0 0 0 0 0 0 0 0 0 0
0 0 0 0 0 0 0 0 0 0 0 0 0 0 0 0 0 0 0 0 0 0 0 0 0 0 0 0 0 0 0 0 0 0 0 0 0 0 0 0 0 0 0 0 0
0 0 0 0 0 0 0 0 0 0 0 0 0 0 0 0 0 0 0 0 0 0 0 0 0 0 0 0 0 0 0 0 0 0 0 0 0 0 0 0 0 0 0 0 0
0 0 0 0 0 0 0 0 0 0 0 0 0 0 0 0 0 0 0 0 0 0 0 0 0 0 0 0 0 0 0 0 0 0 0 0 0 0 0 0 0 0 0 0 0
0 0 0 0 0 0 0 0 0 0 0 0 0 0 0 0 0 0 0 0 0 0 0 0 0 0 0 0 0 0 0 0 0 0 0 0 0 0 0 0 0 0 0 0 0
0 0 0 0 0 0 0 0 0 0 0 0 0 0 0 0 0 0 0 0 0 0 0 0 0 0 0 0 0 0 0 0 0 0 0 0 0 0 0 0 0 0 0 0 0
0 -0 0 -0 -0 0 0 0 0 0 0 0 0 0 0 0 0 0 0 0 0 0 0 0 0 0 0 0 0 0 0 0 0 0 0 0 0 -0 0 0 0 0 0 0 0
-0 0 0 -0 -0 0 0 0 0 0 0 0 0 0 0 0 0 0 0 0 0 0 0 0 0 0 0 0 0 0 0 0 0 0 0 0 0 0 0 0 0 0 0 0 0
-0 0 -0 0 -0 0 0 0 0 0 0 0 0 0 0 0 0 0 0 0 0 0 0 0 0 0 0 0 0 0 0 0 0 0 0 0 0 0 0 0 0 0 0 0 0
0 0 0 0 0 0 0 0 0 0 0 0 0 0 0 0 0 0 0 0 0 0 0 0 0 0 0 0 0 0 0 0 0 0 0 0 0 0 0 0 0 0 0 0 0
0 0 0 0 0 0 0 0 0 0 0 0 0 0 0 0 0 0 0 0 0 0 0 0 0 0 0 0 0 0 0 0 0 0 0 0 0 0 0 0 0 0 0 0 0
0 0 0 0 0 0 0 0 0 0 0 0 0 0 0 0 0 0 0 0 0 0 0 0 0 0 0 0 0 0 0 0 0 0 0 0 0 0 0 0 0 0 0 0 0
0 0 0 0 0 0 0 0 0 0 0 0 0 0 0 0 0 0 0 0 0 0 0 0 0 0 0 0 0 0 0 0 0 0 0 0 0 0 0 0 0 0 0 0 0
0 0 0 0 0 0 0 0 0 0 0 0 0 0 0 0 0 0 0 0 0 0 0 0 0 0 0 0 0 0 0 0 0 0 0 0 0 0 0 0 0 0 0 0 0
0 0 0 0 0 0 0 0 0 0 0 0 0 0 0 0 0 0 0 0 0 0 0 0 0 0 0 0 0 0 0 0 0 0 0 0 0 0 0 0 0 0 0 0 0
0 0 0 0 0 0 0 0 0 0 0 0 0 0 0 0 0 -0 0 0 0 0 -0 0 0 0 0 0 0 0 0 0 0 0 0 0 0 0 0 0 0 0 0 0 0
0 0 0 0 0 0 0 0 0 0 0 0 0 0 0 0 0 0 0 0 0 0 0 0 0 0 0 0 0 0 0 0 0 0 0 0 0 0 0 0 0 0 0 0 0
0 0 0 0 0 0 0 0 0 0 0 0 0 0 0 0 0 0 0 0 0 0 0 0 -0 0 0 0 0 0 0 0 0 0 0 0 0 0 -0 -0 0 0 0 0 0
Wind_Speed_500mb
35 34 41 34 40 34 32 28 30 34 26 26 36 35 30 31 36 40 47 42 35 35 40 34 38 42 31 18 17 6 5 6 9 13 8 5 8 5 9 13 20 27 10 10 32
41 34 33 33 36 39 39 34 30 29 33 25 28 33 29 29 35 47 47 41 39 37 34 32 36 30 15 11 12 10 8 18 12 10 9 8 6 8 7 14 14 23 27 17 37
43 44 34 28 34 32 37 39 32 36 29 32 25 26 28 28 35 41 35 40 42 41 37 36 31 22 17 15 16 13 13 11 10 18 10 8 4 7 12 6 22 47 42 30 41
42 42 44 37 36 38 33 37 34 31 30 28 24 23 26 24 11 3 3 8 19 25 28 28 27 13 12 13 19 8 22 13 9 19 11 7 6 6 16 12 26 33 31 39 48
50 47 45 42 44 40 40 32 42 30 27 28 27 19 26 28 35 8 2 5 8 6 11 20 29 20 11 11 11 7 7 22 14 16 14 8 12 9 23 26 24 19 34 50 57
46 51 53 49 46 45 44 36 32 41 31 26 32 28 30 28 36 38 47 34 21 17 12 15 12 20 12 8 13 6 12 6 16 17 10 11 6 6 25 35 35 30 34 51 63
43 43 45 52 50 47 45 40 38 33 41 32 31 37 43 44 21 17 26 35 33 26 22 18 22 16 3 4 12 3 2 6 10 10 7 14 8 19 55 13 17 29 35 52 65
43 49 43 44 53 49 47 43 40 36 43 34 32 32 31 41 58 35 22 27 24 24 25 19 15 15 7 8 5 8 5 6 5 17 9 18 18 18 39 40 41 27 35 50 64
46 46 52 49 43 52 49 43 37 37 33 35 32 28 17 22 48 44 49 29 14 14 19 15 14 10 6 7 5 7 8 7 12 20 6 12 13 9 18 25 47 47 33 37 53
51 47 43 42 43 49 52 41 35 35 35 29 31 14 30 22 31 35 43 31 14 13 13 18 12 3 5 7 14 11 8 9 11 4 5 9 17 13 1 12 23 23 31 43 45
47 42 36 43 41 43 44 40 23 17 35 20 11 27 6 29 14 26 42 47 32 9 10 12 7 18 15 12 3 7 6 8 5 3 7 14 12 30 21 20 25 30 34 36 40
45 38 33 42 38 47 49 51 37 13 14 58 38 26 17 9 7 17 29 33 20 15 8 5 24 8 11 11 8 4 6 6 7 4 8 5 16 23 11 17 43 54 52 45 42
43 39 39 35 37 49 56 65 58 20 7 9 59 50 23 20 13 22 37 37 9 17 14 18 5 14 14 9 13 8 10 6 3 9 2 7 12 14 9 22 40 52 56 59 57
36 39 37 32 36 50 62 53 61 32 6 10 16 24 47 7 11 23 41 33 10 28 12 14 12 6 7 13 13 11 14 10 5 7 7 5 11 10 10 12 9 38 58 69 67
35 32 35 31 31 49 66 64 39 41 10 7 12 10 36 30 4 36 44 33 15 13 15 11 10 18 13 9 15 12 12 15 10 6 5 2 4 14 7 9 16 23 44 42 41
33 26 24 27 27 28 50 74 41 9 10 3 12 19 18 30 10 11 37 30 11 12 5 10 6 8 13 8 17 12 12 11 9 5 7 12 13 8 9 10 8 10 14 19 28
26 20 25 27 23 36 57 53 7 6 7 13 12 12 18 23 31 10 15 23 14 13 22 7 8 4 8 9 7 6 11 5 4 3 12 1 5 11 16 8 8 17 43 36 28
19 19 17 12 15 43 57 5 6 4 11 4 9 18 19 14 18 24 13 26 17 5 8 15 11 19 11 11 11 16 11 10 14 9 7 3 12 10 5 14 20 25 26 24 23
19 18 17 22 18 53 17 4 9 10 8 11 12 8 7 5 6 18 14 18 15 18 8 10 10 7 14 11 18 10 19 9 10 3 6 8 11 14 12 17 23 33 45 41 34
25 17 18 26 21 37 5 9 6 4 6 1 9 6 6 5 7 21 20 4 9 19 8 4 2 8 14 6 4 9 13 6 4 7 9 6 7 6 9 12 14 27 35 44 38
29 13 11 24 35 10 3 3 6 6 5 5 5 9 8 4 4 6 3 6 9 8 22 5 3 2 10 16 22 11 6 3 3 9 9 5 8 5 8 3 12 16 34 46 47
31 4 20 27 6 5 7 11 10 6 12 7 10 8 7 4 7 6 5 2 19 2 10 11 5 7 10 2 2 25 26 13 13 9 4 5 6 5 6 5 19 28 38 43 43
27 10 23 33 5 3 4 8 7 4 6 6 4 5 4 5 6 2 5 13 14 8 6 2 6 0 5 5 5 7 9 19 7 4 12 10 9 12 1 4 22 34 35 38 38
17 6 6 12 9 11 9 3 6 9 6 6 6 10 7 6 3 10 10 9 8 6 16 5 1 6 10 4 3 6 8 11 12 9 9 22 10 13 6 8 12 24 27 28 28
9 3 7 6 1 7 6 6 9 6 3 4 8 5 11 7 6 2 3 6 5 4 7 2 6 5 2 7 4 7 5 3 8 9 10 3 10 7 7 9 13 13 13 16 19
16 12 11 8 21 11 7 5 7 1 5 4 11 11 8 10 8 8 8 3 3 6 4 1 4 2 2 4 6 2 4 4 2 3 7 5 13 14 7 13 8 8 10 10 6
28 38 20 8 7 5 5 9 8 8 8 8 11 8 6 5 12 9 11 5 2 2 3 6 7 3 6 8 8 7 16 17 9 9 11 12 15 11 11 15 20 15 9 8 8
Wind_Direction_500mb
278 291 282 276 258 262 264 272 264 262 275 271 255 262 270 275 270 268 262 253 258 254 253 252 247 264 273 263 246 214 72 236 224 168 229 149 171 206 196 172 181 189 225 222 183
278 282 280 279 270 266 263 268 269 265 261 275 268 257 262 271 277 269 256 256 258 255 253 256 249 256 249 236 210 165 168 219 204 204 211 155 145 171 171 177 209 206 213 221 182
272 265 265 278 269 271 273 261 269 260 267 264 270 267 260 271 297 285 270 248 243 250 249 251 251 246 234 225 202 182 207 205 230 215 197 184 229 176 150 242 205 211 207 207 191
279 271 262 261 261 266 268 261 265 264 263 256 262 266 249 251 252 355 2 192 205 234 243 241 232 205 221 205 209 170 242 202 220 200 187 188 180 233 196 204 219 226 227 212 202
276 274 270 264 261 261 260 265 252 264 261 254 247 258 238 233 236 203 101 217 233 242 233 217 212 195 203 207 194 215 244 220 212 192 206 221 230 240 250 228 232 230 222 216 212
277 273 272 271 268 261 255 254 256 247 264 258 245 245 236 244 255 250 251 255 249 240 245 222 228 219 253 231 188 247 233 241 231 216 203 193 241 182 257 242 245 239 224 213 212
276 270 272 267 269 262 249 255 252 257 253 252 251 244 243 236 248 261 241 239 247 249 247 240 229 218 230 274 238 185 207 295 234 208 227 192 261 222 241 248 224 220 223 216 213
282 273 270 264 259 259 250 249 254 250 238 248 251 244 246 252 244 240 247 238 248 251 242 233 238 237 231 302 2 154 96 218 273 158 236 149 260 251 250 237 233 229 220 219 217
274 273 266 270 257 249 248 244 255 248 243 237 242 234 253 237 241 241 230 231 235 243 222 217 210 213 173 116 2 335 182 200 314 205 137 175 252 274 253 223 236 230 226 226 228
283 281 262 265 266 241 240 243 248 238 235 229 230 228 243 235 242 237 219 216 220 199 194 190 199 168 93 150 205 195 182 209 207 201 205 221 257 267 277 216 238 235 234 233 232
279 282 271 259 264 245 228 224 203 218 218 201 195 214 329 218 203 225 209 208 213 236 176 187 162 213 195 179 236 168 194 186 223 244 173 237 251 258 254 255 263 252 254 250 242
276 279 259 265 277 242 226 211 200 205 182 220 223 229 224 178 208 215 196 189 180 201 136 126 232 191 180 197 184 141 169 245 286 28 166 281 263 261 214 233 239 255 264 260 255
274 274 264 268 273 242 229 220 217 178 96 208 226 228 238 236 215 221 194 195 178 186 199 220 154 182 180 179 185 197 175 169 266 330 123 325 279 248 246 234 249 250 255 261 259
274 270 265 267 258 240 234 215 207 192 147 236 192 233 223 266 257 212 201 187 203 204 166 242 211 114 198 207 156 222 178 168 270 25 245 25 281 287 269 268 246 258 250 251 255
277 270 272 251 239 242 220 211 157 168 182 202 159 203 202 184 301 209 205 194 182 176 170 206 188 194 204 200 163 222 152 179 184 179 4 249 343 271 293 281 263 253 256 262 269
276 273 267 241 257 239 179 188 150 141 204 165 144 175 162 190 226 185 194 207 186 173 219 218 193 181 198 144 172 139 99 67 65 109 268 194 172 253 216 219 272 302 298 306 311
268 272 257 253 219 183 163 154 127 150 26 165 166 169 195 192 203 168 189 197 188 179 203 169 210 197 154 130 179 150 117 39 18 360 232 106 196 263 259 288 274 292 306 312 311
246 254 246 227 225 179 169 118 114 121 202 244 118 138 193 173 215 208 174 211 224 228 161 184 202 181 188 191 173 190 164 157 181 192 239 57 231 250 37 346 40 52 43 52 47
213 222 203 228 238 170 154 126 160 183 150 155 123 121 180 238 154 198 197 218 209 209 178 171 237 123 189 159 148 175 218 152 109 67 63 213 289 321 49 33 22 32 43 41 57
194 199 192 207 173 182 70 96 110 32 12 197 124 102 135 211 142 186 171 210 217 200 181 234 221 198 183 133 185 176 149 191 38 150 235 264 275 213 21 23 15 31 32 53 71
184 143 203 192 182 194 115 100 85 76 97 112 129 103 118 158 112 174 231 40 3 294 195 226 125 304 135 202 176 182 221 161 135 159 176 160 254 224 149 59 62 44 47 66 76
158 80 169 193 154 50 143 159 125 19 41 55 79 83 92 114 54 32 128 77 344 268 187 204 184 230 204 59 6 200 204 189 191 220 227 128 281 135 124 28 78 65 72 81 87
131 117 174 196 140 98 24 71 80 119 52 76 120 101 91 102 102 29 28 311 3 39 72 6 219 19 310 339 3 177 204 206 153 89 193 177 228 195 1 52 89 86 85 91 95
136 128 132 181 105 123 109 325 93 35 86 71 119 92 126 120 13 180 179 170 293 98 60 24 75 195 225 119 100 167 172 198 199 225 170 211 165 211 213 74 99 101 95 90 92
134 164 153 151 190 117 100 131 120 147 225 145 30 130 138 129 111 68 344 346 13 95 97 76 229 165 249 325 82 153 137 147 207 255 215 122 181 178 247 204 148 122 110 102 101
128 132 93 68 114 99 353 167 140 157 174 262 121 152 125 136 180 177 147 111 22 355 105 35 347 327 180 93 57 348 318 177 334 168 239 232 283 245 98 134 142 158 154 129 104
122 130 118 113 113 98 204 160 154 108 342 120 128 91 67 155 160 100 91 88 171 12 256 158 121 313 241 165 115 331 222 196 200 198 159 187 218 156 188 187 181 163 173 162 165
Wind_Speed_850mb
35 34 41 34 40 34 32 28 30 34 26 26 36 35 30 31 36 40 47 42 35 35 40 34 38 42 31 18 17 6 5 6 9 13 8 5 8 5 9 13 20 27 10 10 32
41 34 33 33 36 39 39 34 30 29 33 25 28 33 29 29 35 47 47 41 39 37 34 32 36 30 15 11 12 10 8 18 12 10 9 8 6 8 7 14 14 23 27 17 37
43 44 34 28 34 32 37 39 32 36 29 32 25 26 28 28 35 41 35 40 42 41 37 36 31 22 17 15 16 13 13 11 10 18 10 8 4 7 12 6 22 47 42 30 41
42 42 44 37 36 38 33 37 34 31 30 28 24 23 26 24 11 3 3 8 19 25 28 28 27 13 12 13 19 8 22 13 9 19 11 7 6 6 16 12 26 33 31 39 48
50 47 45 42 44 40 40 32 42 30 27 28 27 19 26 28 35 8 2 5 8 6 11 20 29 20 11 11 11 7 7 22 14 16 14 8 12 9 23 26 24 19 34 50 57
46 51 53 49 46 45 44 36 32 41 31 26 32 28 30 28 36 38 47 34 21 17 12 15 12 20 12 8 13 6 12 6 16 17 10 11 6 6 25 35 35 30 34 51 63
43 43 45 52 50 47 45 40 38 33 41 32 31 37 43 44 21 17 26 35 33 26 22 18 22 16 3 4 12 3 2 6 10 10 7 14 8 19 55 13 17 29 35 52 65
43 49 43 44 53 49 47 43 40 36 43 34 32 32 31 41 58 35 22 27 24 24 25 19 15 15 7 8 5 8 5 6 5 17 9 18 18 18 39 40 41 27 35 50 64
46 46 52 49 43 52 49 43 37 37 33 35 32 28 17 22 48 44 49 29 14 14 19 15 14 10 6 7 5 7 8 7 12 20 6 12 13 9 18 25 47 47 33 37 53
51 47 43 42 43 49 52 41 35 35 35 29 31 14 30 22 31 35 43 31 14 13 13 18 12 3 5 7 14 11 8 9 11 4 5 9 17 13 1 12 23 23 31 43 45
47 42 36 43 41 43 44 40 23 17 35 20 11 27 6 29 14 26 42 47 32 9 10 12 7 18 15 12 3 7 6 8 5 3 7 14 12 30 21 20 25 30 34 36 40
45 38 33 42 38 47 49 51 37 13 14 58 38 26 17 9 7 17 29 33 20 15 8 5 24 8 11 11 8 4 6 6 7 4 8 5 16 23 11 17 43 54 52 45 42
43 39 39 35 37 49 56 65 58 20 7 9 59 50 23 20 13 22 37 37 9 17 14 18 5 14 14 9 13 8 10 6 3 9 2 7 12 14 9 22 40 52 56 59 57
36 39 37 32 36 50 62 53 61 32 6 10 16 24 47 7 11 23 41 33 10 28 12 14 12 6 7 13 13 11 14 10 5 7 7 5 11 10 10 12 9 38 58 69 67
35 32 35 31 31 49 66 64 39 41 10 7 12 10 36 30 4 36 44 33 15 13 15 11 10 18 13 9 15 12 12 15 10 6 5 2 4 14 7 9 16 23 44 42 41
33 26 24 27 27 28 50 74 41 9 10 3 12 19 18 30 10 11 37 30 11 12 5 10 6 8 13 8 17 12 12 11 9 5 7 12 13 8 9 10 8 10 14 19 28
26 20 25 27 23 36 57 53 7 6 7 13 12 12 18 23 31 10 15 23 14 13 22 7 8 4 8 9 7 6 11 5 4 3 12 1 5 11 16 8 8 17 43 36 28
19 19 17 12 15 43 57 5 6 4 11 4 9 18 19 14 18 24 13 26 17 5 8 15 11 19 11 11 11 16 11 10 14 9 7 3 12 10 5 14 20 25 26 24 23
19 18 17 22 18 53 17 4 9 10 8 11 12 8 7 5 6 18 14 18 15 18 8 10 10 7 14 11 18 10 19 9 10 3 6 8 11 14 12 17 23 33 45 41 34
25 17 18 26 21 37 5 9 6 4 6 1 9 6 6 5 7 21 20 4 9 19 8 4 2 8 14 6 4 9 13 6 4 7 9 6 7 6 9 12 14 27 35 44 38
29 13 11 24 35 10 3 3 6 6 5 5 5 9 8 4 4 6 3 6 9 8 22 5 3 2 10 16 22 11 6 3 3 9 9 5 8 5 8 3 12 16 34 46 47
31 4 20 27 6 5 7 11 10 6 12 7 10 8 7 4 7 6 5 2 19 2 10 11 5 7 10 2 2 25 26 13 13 9 4 5 6 5 6 5 19 28 38 43 43
27 10 23 33 5 3 4 8 7 4 6 6 4 5 4 5 6 2 5 13 14 8 6 2 6 0 5 5 5 7 9 19 7 4 12 10 9 12 1 4 22 34 35 38 38
17 6 6 12 9 11 9 3 6 9 6 6 6 10 7 6 3 10 10 9 8 6 16 5 1 6 10 4 3 6 8 11 12 9 9 22 10 13 6 8 12 24 27 28 28
9 3 7 6 1 7 6 6 9 6 3 4 8 5 11 7 6 2 3 6 5 4 7 2 6 5 2 7 4 7 5 3 8 9 10 3 10 7 7 9 13 13 13 16 19
16 12 11 8 21 11 7 5 7 1 5 4 11 11 8 10 8 8 8 3 3 6 4 1 4 2 2 4 6 2 4 4 2 3 7 5 13 14 7 13 8 8 10 10 6
28 38 20 8 7 5 5 9 8 8 8 8 11 8 6 5 12 9 11 5 2 2 3 6 7 3 6 8 8 7 16 17 9 9 11 12 15 11 11 15 20 15 9 8 8
Wind_Direction_850mb
278 291 282 276 258 262 264 272 264 262 275 271 255 262 270 275 270 268 262 253 258 254 253 252 247 264 273 263 246 214 72 236 224 168 229 149 171 206 196 172 181 189 225 222 183
278 282 280 279 270 266 263 268 269 265 261 275 268 257 262 271 277 269 256 256 258 255 253 256 249 256 249 236 210 165 168 219 204 204 211 155 145 171 171 177 209 206 213 221 182
272 265 265 278 269 271 273 261 269 260 267 264 270 267 260 271 297 285 270 248 243 250 249 251 251 246 234 225 202 182 207 205 230 215 197 184 229 176 150 242 205 211 207 207 191
279 271 262 261 261 266 268 261 265 264 263 256 262 266 249 251 252 355 2 192 205 234 243 241 232 205 221 205 209 170 242 202 220 200 187 188 180 233 196 204 219 226 227 212 202
276 274 270 264 261 261 260 265 252 264 261 254 247 258 238 233 236 203 101 217 233 242 233 217 212 195 203 207 194 215 244 220 212 192 206 221 230 240 250 228 232 230 222 216 212
277 273 272 271 268 261 255 254 256 247 264 258 245 245 236 244 255 250 251 255 249 240 245 222 228 219 253 231 188 247 233 241 231 216 203 193 241 182 257 242 245 239 224 213 212
276 270 272 267 269 262 249 255 252 257 253 252 251 244 243 236 248 261 241 239 247 249 247 240 229 218 230 274 238 185 207 295 234 208 227 192 261 222 241 248 224 220 223 216 213
282 273 270 264 259 259 250 249 254 250 238 248 251 244 246 252 244 240 247 238 248 251 242 233 238 237 231 302 2 154 96 218 273 158 236 149 260 251 250 237 233 229 220 219 217
274 273 266 270 257 249 248 244 255 248 243 237 242 234 253 237 241 241 230 231 235 243 222 217 210 213 173 116 2 335 182 200 314 205 137 175 252 274 253 223 236 230 226 226 228
283 281 262 265 266 241 240 243 248 238 235 229 230 228 243 235 242 237 219 216 220 199 194 190 199 168 93 150 205 195 182 209 207 201 205 221 257 267 277 216 238 235 234 233 232
279 282 271 259 264 245 228 224 203 218 218 201 195 214 329 218 203 225 209 208 213 236 176 187 162 213 195 179 236 168 194 186 223 244 173 237 251 258 254 255 263 252 254 250 242
276 279 259 265 277 242 226 211 200 205 182 220 223 229 224 178 208 215 196 189 180 201 136 126 232 191 180 197 184 141 169 245 286 28 166 281 263 261 214 233 239 255 264 260 255
274 274 264 268 273 242 229 220 217 178 96 208 226 228 238 236 215 221 194 195 178 186 199 220 154 182 180 179 185 197 175 169 266 330 123 325 279 248 246 234 249 250 255 261 259
274 270 265 267 258 240 234 215 207 192 147 236 192 233 223 266 257 212 201 187 203 204 166 242 211 114 198 207 156 222 178 168 270 25 245 25 281 287 269 268 246 258 250 251 255
277 270 272 251 239 242 220 211 157 168 182 202 159 203 202 184 301 209 205 194 182 176 170 206 188 194 204 200 163 222 152 179 184 179 4 249 343 271 293 281 263 253 256 262 269
276 273 267 241 257 239 179 188 150 141 204 165 144 175 162 190 226 185 194 207 186 173 219 218 193 181 198 144 172 139 99 67 65 109 268 194 172 253 216 219 272 302 298 306 311
268 272 257 253 219 183 163 154 127 150 26 165 166 169 195 192 203 168 189 197 188 179 203 169 210 197 154 130 179 150 117 39 18 360 232 106 196 263 259 288 274 292 306 312 311
246 254 246 227 225 179 169 118 114 121 202 244 118 138 193 173 215 208 174 211 224 228 161 184 202 181 188 191 173 190 164 157 181 192 239 57 231 250 37 346 40 52 43 52 47
213 222 203 228 238 170 154 126 160 183 150 155 123 121 180 238 154 198 197 218 209 209 178 171 237 123 189 159 148 175 218 152 109 67 63 213 289 321 49 33 22 32 43 41 57
194 199 192 207 173 182 70 96 110 32 12 197 124 102 135 211 142 186 171 210 217 200 181 234 221 198 183 133 185 176 149 191 38 150 235 264 275 213 21 23 15 31 32 53 71
184 143 203 192 182 194 115 100 85 76 97 112 129 103 118 158 112 174 231 40 3 294 195 226 125 304 135 202 176 182 221 161 135 159 176 160 254 224 149 59 62 44 47 66 76
158 80 169 193 154 50 143 159 125 19 41 55 79 83 92 114 54 32 128 77 344 268 187 204 184 230 204 59 6 200 204 189 191 220 227 128 281 135 124 28 78 65 72 81 87
131 117 174 196 140 98 24 71 80 119 52 76 120 101 91 102 102 29 28 311 3 39 72 6 219 19 310 339 3 177 204 206 153 89 193 177 228 195 1 52 89 86 85 91 95
136 128 132 181 105 123 109 325 93 35 86 71 119 92 126 120 13 180 179 170 293 98 60 24 75 195 225 119 100 167 172 198 199 225 170 211 165 211 213 74 99 101 95 90 92
134 164 153 151 190 117 100 131 120 147 225 145 30 130 138 129 111 68 344 346 13 95 97 76 229 165 249 325 82 153 137 147 207 255 215 122 181 178 247 204 148 122 110 102 101
128 132 93 68 114 99 353 167 140 157 174 262 121 152 125 136 180 177 147 111 22 355 105 35 347 327 180 93 57 348 318 177 334 168 239 232 283 245 98 134 142 158 154 129 104
122 130 118 113 113 98 204 160 154 108 342 120 128 91 67 155 160 100 91 88 171 12 256 158 121 313 241 165 115 331 222 196 200 198 159 187 218 156 188 187 181 163 173 162 165